EW4271 Weather Reports


Display with metric or nautical units.
time (UTC)temp
F
wind
direction
speed
MPH
gust
MPH
rain 1hr
in
rain 24hr
in
rain mn
in
humidity
%
barometer
mb
20260509185531 77 35 4.0 8.0 0.00 0.00 0.00 12 1019.7
20260509185024 77 13 2.0 16.0 0.00 0.00 0.00 13 1019.5
20260509184518 76 180 6.0 16.0 0.00 0.00 0.00 12 1019.5
20260509184013 76 266 2.0 9.0 0.00 0.00 0.00 13 1019.6
20260509183531 76 219 3.0 9.0 0.00 0.00 0.00 13 1019.7
20260509183024 75 331 3.0 9.0 0.00 0.00 0.00 13 1019.8
20260509182518 74 161 4.0 12.0 0.00 0.00 0.00 13 1019.9
20260509182011 74 81 5.0 12.0 0.00 0.00 0.00 13 1019.9
20260509181524 73 126 3.0 7.0 0.00 0.00 0.00 14 1020.1
20260509181018 74 49 4.0 8.0 0.00 0.00 0.00 13 1020.0
20260509180513 73 257 2.0 7.0 0.00 0.00 0.00 13 1020.2
20260509180028 73 340 4.0 7.0 0.00 0.00 0.00 13 1020.4
20260509175523 73 54 2.0 11.0 0.00 0.00 0.00 13 1020.3
20260509175017 73 44 7.0 11.0 0.00 0.00 0.00 13 1020.6
20260509174511 73 327 2.0 8.0 0.00 0.00 0.00 13 1020.5
20260509174025 73 302 3.0 8.0 0.00 0.00 0.00 14 1020.4
20260509173518 73 346 5.0 10.0 0.00 0.00 0.00 14 1020.4
20260509173033 73 82 4.0 11.0 0.00 0.00 0.00 13 1020.6
20260509172544 73 124 3.0 11.0 0.00 0.00 0.00 14 1020.5
20260509172017 73 39 4.0 19.0 0.00 0.00 0.00 14 1020.6
20260509171511 73 43 5.0 11.0 0.00 0.00 0.00 14 1020.6
20260509171028 73 304 2.0 16.0 0.00 0.00 0.00 14 1020.6
20260509170522 72 64 9.0 16.0 0.00 0.00 0.00 13 1020.5
20260509170016 73 58 3.0 8.0 0.00 0.00 0.00 14 1021.0
20260509165509 73 208 4.0 8.0 0.00 0.00 0.00 14 1020.7
20260509165023 74 309 4.0 8.0 0.00 0.00 0.00 14 1020.8
20260509164528 74 250 4.0 12.0 0.00 0.00 0.00 17 1020.6
20260509164013 73 150 6.0 12.0 0.00 0.00 0.00 17 1020.5
20260509163528 72 145 4.0 11.0 0.00 0.00 0.00 18 1020.6
20260509163021 72 59 4.0 11.0 0.00 0.00 0.00 19 1020.8
20260509162535 72 159 4.0 12.0 0.00 0.00 0.00 17 1020.7
20260509162025 72 350 4.0 13.0 0.00 0.00 0.00 16 1020.8
20260509161522 72 55 4.0 13.0 0.00 0.00 0.00 15 1020.7
20260509161017 71 300 4.0 10.0 0.00 0.00 0.00 16 1020.6
20260509160510 71 280 5.0 10.0 0.00 0.00 0.00 15 1020.8
20260509160024 71 91 3.0 8.0 0.00 0.00 0.00 17 1020.6
20260509155517 70 360 3.0 12.0 0.00 0.00 0.00 19 1020.7
20260509155010 70 210 5.0 12.0 0.00 0.00 0.00 17 1020.6
20260509154524 70 45 3.0 5.0 0.00 0.00 0.00 19 1020.7
20260509154021 69 89 3.0 8.0 0.00 0.00 0.00 20 1020.6
20260509153514 69 178 2.0 8.0 0.00 0.00 0.00 22 1020.6
20260509153028 68 308 2.0 7.0 0.00 0.00 0.00 22 1020.6
20260509152522 67 126 1.0 9.0 0.00 0.00 0.00 23 1020.7
20260509152015 67 83 1.0 4.0 0.00 0.00 0.00 24 1020.6
20260509151528 67 49 1.0 3.0 0.00 0.00 0.00 25 1020.8
20260509151022 66 46 1.0 6.0 0.00 0.00 0.00 24 1020.8
20260509150515 66 146 1.0 6.0 0.00 0.00 0.00 24 1020.9
20260509150048 66 49 3.0 4.0 0.00 0.00 0.00 25 1020.9
20260509145521 66 155 1.0 5.0 0.00 0.00 0.00 26 1020.9
20260509145019 66 155 4.0 6.0 0.00 0.00 0.00 25 1020.9
20260509144514 66 129 2.0 4.0 0.00 0.00 0.00 26 1021.0
20260509144010 65 53 2.0 3.0 0.00 0.00 0.00 27 1021.1
20260509143545 64 151 1.0 5.0 0.00 0.00 0.00 27 1020.9
20260509143011 63 136 2.0 5.0 0.00 0.00 0.00 27 1020.9
20260509033126 64 5 3.0 4.0 0.00 0.00 0.00 23 1019.4
20260509032639 64 313 0.0 0.0 0.00 0.00 0.00 22 1019.4
20260509032134 64 313 0.0 0.0 0.00 0.00 0.00 23 1019.3
20260509031647 65 313 0.0 0.0 0.00 0.00 0.00 22 1019.3
20260509031139 65 313 0.0 1.0 0.00 0.00 0.00 22 1019.2
20260509030633 66 293 0.0 4.0 0.00 0.00 0.00 21 1019.2
20260509030131 66 328 2.0 4.0 0.00 0.00 0.00 21 1019.2
20260509025624 66 335 1.0 4.0 0.00 0.00 0.00 21 1019.1
20260509025137 66 343 1.0 3.0 0.00 0.00 0.00 21 1019.0
20260509024632 66 326 1.0 6.0 0.00 0.00 0.00 20 1018.9
20260509024125 67 263 2.0 6.0 0.00 0.00 0.00 20 1018.9
20260509023637 67 315 2.0 8.0 0.00 0.00 0.00 20 1018.9
20260509023151 67 51 2.0 8.0 0.00 0.00 0.00 20 1018.8
20260509022625 67 350 3.0 8.0 0.00 0.00 0.00 19 1018.7
20260509022123 67 78 2.0 8.0 0.00 0.00 0.00 20 1018.6
20260509021637 67 29 3.0 7.0 0.00 0.00 0.00 19 1018.5
20260509021132 67 14 2.0 4.0 0.00 0.00 0.00 19 1018.5
20260509020626 68 327 1.0 3.0 0.00 0.00 0.00 20 1018.4
20260509020139 68 15 0.0 3.0 0.00 0.00 0.00 19 1018.3
20260509015634 68 333 2.0 3.0 0.00 0.00 0.00 19 1018.2
20260509015126 68 21 1.0 4.0 0.00 0.00 0.00 18 1018.1
20260509014641 68 341 1.0 7.0 0.00 0.00 0.00 18 1018.1
20260509014138 68 355 3.0 7.0 0.00 0.00 0.00 18 1018.0
20260509013633 69 96 1.0 2.0 0.00 0.00 0.00 17 1018.0
20260509013127 70 265 0.0 2.0 0.00 0.00 0.00 17 1017.9
20260509012641 70 265 0.0 3.0 0.00 0.00 0.00 16 1017.7
20260509012154 70 265 0.0 4.0 0.00 0.00 0.00 16 1017.7
20260509011626 71 101 1.0 4.0 0.00 0.00 0.00 16 1017.6
20260509011140 71 94 1.0 4.0 0.00 0.00 0.00 16 1017.6
20260509010634 71 33 1.0 4.0 0.00 0.00 0.00 16 1017.7
20260509010133 71 19 2.0 4.0 0.00 0.00 0.00 15 1017.6
20260509005627 72 351 2.0 3.0 0.00 0.00 0.00 15 1017.6
20260509005141 72 246 1.0 5.0 0.00 0.00 0.00 15 1017.6
20260509004634 72 320 3.0 5.0 0.00 0.00 0.00 15 1017.6
20260509004146 72 78 2.0 10.0 0.00 0.00 0.00 15 1017.5
20260509003640 72 60 3.0 10.0 0.00 0.00 0.00 14 1017.5
20260509003134 73 329 2.0 6.0 0.00 0.00 0.00 15 1017.6
20260509002648 73 323 1.0 8.0 0.00 0.00 0.00 15 1017.5
20260509002141 73 41 3.0 8.0 0.00 0.00 0.00 15 1017.6
20260509001655 74 42 2.0 5.0 0.00 0.00 0.00 15 1017.6
20260509001131 74 311 2.0 6.0 0.00 0.00 0.00 15 1017.6
20260509000625 75 17 2.0 6.0 0.00 0.00 0.00 15 1017.5
20260509000200 75 324 2.0 8.0 0.00 0.00 0.00 15 1017.4
20260508235653 74 236 2.0 8.0 0.00 0.00 0.00 14 1017.4
20260508235126 74 240 2.0 8.0 0.00 0.00 0.00 14 1017.4
20260508234700 74 328 3.0 8.0 0.00 0.00 0.00 15 1017.5
20260508234133 74 229 3.0 5.0 0.00 0.00 0.00 14 1017.3
20260508233627 74 202 3.0 7.0 0.00 0.00 0.00 15 1017.5
20260508233141 74 258 2.0 7.0 0.00 0.00 0.00 16 1017.3
20260508232635 74 203 3.0 7.0 0.00 0.00 0.00 16 1017.4
20260508232132 74 115 3.0 7.0 0.00 0.00 0.00 16 1017.3
20260508231627 74 154 3.0 7.0 0.00 0.00 0.00 16 1017.3
20260508231141 74 252 1.0 3.0 0.00 0.00 0.00 16 1017.2
20260508230655 74 122 1.0 3.0 0.00 0.00 0.00 16 1017.2
20260508230128 74 158 0.0 4.0 0.00 0.00 0.00 16 1017.2
20260508225640 74 142 2.0 4.0 0.00 0.00 0.00 16 1017.2
20260508225134 74 146 2.0 4.0 0.00 0.00 0.00 17 1017.2
20260508224627 74 340 1.0 5.0 0.00 0.00 0.00 17 1017.3
20260508224125 74 150 2.0 5.0 0.00 0.00 0.00 17 1017.4
20260508223640 73 127 1.0 5.0 0.00 0.00 0.00 17 1017.4
20260508223153 72 341 2.0 5.0 0.00 0.00 0.00 17 1017.4
20260508222625 72 149 2.0 3.0 0.00 0.00 0.00 17 1017.6
20260508222139 72 86 0.0 4.0 0.00 0.00 0.00 17 1017.6
20260508221653 72 86 2.0 4.0 0.00 0.00 0.00 17 1017.6
20260508221125 73 128 1.0 7.0 0.00 0.00 0.00 17 1017.7
20260508220639 73 97 3.0 7.0 0.00 0.00 0.00 16 1017.6
20260508220151 74 161 2.0 7.0 0.00 0.00 0.00 16 1017.7
20260508215645 74 120 2.0 12.0 0.00 0.00 0.00 16 1017.8
20260508215157 75 157 1.0 9.0 0.00 0.00 0.00 17 1017.8
20260508214649 74 150 3.0 6.0 0.00 0.00 0.00 17 1017.8
20260508214125 74 152 1.0 5.0 0.00 0.00 0.00 16 1017.8
20260508213636 75 87 1.0 7.0 0.00 0.00 0.00 17 1017.8
20260508213131 75 86 2.0 9.0 0.00 0.00 0.00 17 1017.8
20260508212644 74 74 2.0 9.0 0.00 0.00 0.00 16 1017.8
20260508212137 74 340 1.0 7.0 0.00 0.00 0.00 17 1018.0
20260508211630 75 327 2.0 4.0 0.00 0.00 0.00 16 1017.9
20260508211124 75 5 2.0 6.0 0.00 0.00 0.00 16 1018.0
20260508210657 75 247 2.0 6.0 0.00 0.00 0.00 16 1018.1
20260508210130 76 318 2.0 7.0 0.00 0.00 0.00 16 1018.2
20260508205627 76 355 2.0 7.0 0.00 0.00 0.00 17 1018.2
20260508205141 75 59 2.0 9.0 0.00 0.00 0.00 17 1018.2
20260508204634 75 63 4.0 9.0 0.00 0.00 0.00 16 1018.2
20260508204148 75 152 3.0 7.0 0.00 0.00 0.00 16 1018.3
20260508203641 76 261 2.0 7.0 0.00 0.00 0.00 16 1018.5
20260508203134 75 101 2.0 5.0 0.00 0.00 0.00 16 1018.5
20260508202627 74 154 3.0 10.0 0.00 0.00 0.00 17 1018.5
20260508202140 74 294 5.0 10.0 0.00 0.00 0.00 17 1018.7
20260508201634 74 107 2.0 10.0 0.00 0.00 0.00 17 1018.7
20260508201132 74 149 4.0 10.0 0.00 0.00 0.00 16 1018.8
20260508200625 74 130 4.0 10.0 0.00 0.00 0.00 16 1018.8
20260508200159 73 157 2.0 8.0 0.00 0.00 0.00 17 1018.8
20260508195631 74 31 2.0 10.0 0.00 0.00 0.00 17 1019.0
20260508195125 73 155 3.0 10.0 0.00 0.00 0.00 17 1019.0
20260508194638 73 131 5.0 9.0 0.00 0.00 0.00 17 1019.0
20260508194133 72 159 2.0 11.0 0.00 0.00 0.00 18 1019.1
20260508193626 72 171 2.0 7.0 0.00 0.00 0.00 17 1019.2
20260508193143 72 254 3.0 8.0 0.00 0.00 0.00 17 1019.2
20260508192657 73 161 2.0 8.0 0.00 0.00 0.00 17 1019.1
20260508192128 73 135 3.0 9.0 0.00 0.00 0.00 17 1019.2
20260508191643 73 142 3.0 9.0 0.00 0.00 0.00 17 1019.2
20260508191136 73 188 2.0 6.0 0.00 0.00 0.00 18 1019.4
20260508190629 73 46 1.0 8.0 0.00 0.00 0.00 18 1019.3
20260508190142 73 112 2.0 7.0 0.00 0.00 0.00 18 1019.4